{"data":{"norad_id":60348,"intl_designator":"2024-136V","name":"STARLINK-32081","alt_names":[],"object_type":"PAYLOAD","status":"ACTIVE","operator":null,"country":"US","launch_date":"2024-08-02","launch_site_code":"AFETR","launch_vehicle":null,"mission":null,"orbit_class":"UNKNOWN","rcs_meters":null,"size_class":null,"mass_kg":null,"dimensions":null,"purposes":["comms"],"wikipedia_slug":null,"has_3d_model":false,"image_url":null,"decayed_at":null,"tle_current":{"epoch":"2026-05-25T04:53:46.845024Z","epoch_age_seconds":54102,"freshness":"FRESH","line1":"1 60348U 24136V   26145.20401441  .00000100  00000+0  15008-4 0  9999","line2":"2 60348  53.1624  79.9498 0001437  91.8151 268.3015 15.31696525101381","mean_motion":15.31696525,"eccentricity":0.0001437,"inclination_deg":53.1624,"raan_deg":79.9498,"arg_perigee_deg":91.8151,"mean_anomaly_deg":268.3015,"bstar":1.5008e-5,"rev_number":10138,"period_min":94.013401251269,"perigee_km":469.76616892663,"apogee_km":471.73453915218,"semimajor_km":6848.8873540394,"source":"CELESTRAK","updated_at":"2026-05-25T13:38:19.236695Z"}}}